Location: Ambatotampy
(18.8181°S, 47.6186°E)
Time: 19:33:29
(UTC+00:00)

USA 238 DEB - Pass Details

Date: 21 January 2021
Orbit: 995 x 1217 km, 63.4° (Epoch: 07 March)

Event Time Altitude Azimuth Distance (km) Brightness Sun altitude
Rises 00:53:59 0° 202° (SSW) 3,815 6.7 -21.0°
Reaches altitude 10° 00:56:40 10° 199° (SSW) 2,833 6.0 -20.4°
Maximum altitude 01:03:17 70° 116° (ESE) 1,065 3.8 -19.1°
Drops below altitude 10° 01:09:40 10° 33° (NNE) 2,749 5.9 -17.8°
Sets 01:12:14 0° 30° (NNE) 3,695 6.6 -17.2°
